Location: Camp at the Woods
(43.2055°N, 93.0905°W)
Time: 22:15:41
(UTC+00:00)

BlueWalker 3 - Visible Passes

Search period start: 15 April 2024 00:00
Search period end: 25 April 2024 00:00
Orbit: 485 x 496 km, 53.2° (Epoch: 15 April)

Date Brightness Start Highest point End Pass type
(mag) Time Alt. Az. Time Alt. Az. Time Alt. Az.
15 Apr 4.8 07:52:58 16° NE 07:52:58 16° NE 07:54:08 10° ENE visible
15 Apr 2.3 09:27:27 20° NW 09:29:56 64° NNE 09:33:44 10° ESE visible
16 Apr 3.4 02:26:53 10° SSW 02:28:39 21° S 02:28:39 21° S visible
16 Apr 2.3 09:05:05 58° N 09:05:25 61° NNE 09:09:11 10° ESE visible
16 Apr 3.2 10:40:28 10° W 10:43:21 20° SW 10:46:13 10° S visible
17 Apr 2.8 02:02:25 10° SSW 02:05:41 28° SE 02:07:53 16° E visible
17 Apr 3.4 03:40:05 10° WSW 03:42:28 32° W 03:42:28 32° W visible
17 Apr 4.1 08:43:25 19° ESE 08:43:25 19° ESE 08:44:39 10° ESE visible
17 Apr 3.1 10:18:01 20° WSW 10:18:50 21° SW 10:21:47 10° S visible
18 Apr 2.9 01:37:56 10° S 01:41:09 26° SE 01:44:24 10° ENE visible
18 Apr 2.8 03:15:30 10° WSW 03:19:13 49° NNW 03:20:57 27° NNE visible
18 Apr 5.1 04:55:16 10° WNW 04:55:29 11° WNW 04:55:29 11° WNW visible
18 Apr 4.2 09:57:07 11° S 09:57:07 11° S 09:57:19 10° S visible
19 Apr 2.7 02:50:55 10° WSW 02:54:38 51° NNW 02:58:24 10° NE visible
19 Apr 4.5 04:30:39 10° WNW 04:33:08 20° NNW 04:33:08 20° NNW visible
20 Apr 2.7 02:26:19 10° WSW 02:30:03 53° NNW 02:33:49 10° NE visible
20 Apr 4.4 04:06:02 10° WNW 04:08:57 20° N 04:10:12 17° NNE visible
21 Apr 2.6 02:01:42 10° WSW 02:05:27 56° NNW 02:09:14 10° NE visible
21 Apr 4.4 03:41:23 10° WNW 03:44:19 20° NNW 03:46:54 12° NE visible
21 Apr 5.1 05:20:43 10° NW 05:21:20 13° NNW 05:21:20 13° NNW visible
22 Apr 2.6 01:37:04 10° WSW 01:40:50 58° NNW 01:44:37 10° NE visible
22 Apr 4.4 03:16:43 10° WNW 03:19:41 21° NNW 03:22:39 10° NE visible
22 Apr 4.7 04:56:06 10° NW 04:57:47 17° NNW 04:57:47 17° NNW visible
23 Apr 4.4 02:52:03 10° WNW 02:55:01 21° NNW 02:58:01 10° NE visible
23 Apr 4.4 04:31:27 10° NW 04:34:06 19° N 04:34:06 19° N visible
24 Apr 4.3 02:27:21 10° WNW 02:30:21 21° NNW 02:33:21 10° NE visible
24 Apr 4.3 04:06:48 10° NW 04:09:37 19° N 04:10:18 18° NNE visible
